Bloomington, IN

9:20 AM EST on December 11, 2019 (GMT -0500)
Monroe County

Weather History for KBMG - September, 2019

Change the Weather History Date:

Wednesday, September 4, 2019

  Actual Average Record
Temperature  
Mean Temperature 71 °F 70 °F  
Max Temperature 81 °F 82 °F 96 °F (2007)
Min Temperature 61 °F 58 °F 42 °F (1997)
Degree Days  
Heating Degree Days 0 0  
Month to date heating degree days 0 0  
Since 1 July heating degree days 0 7  
Cooling Degree Days 6 5  
Month to date cooling degree days 29 23  
Year to date cooling degree days 1001 840  
Growing Degree Days 21 (Base 50)    
Moisture  
Dew Point 63 °F    
Average Humidity 73    
Maximum Humidity 97    
Minimum Humidity 45    
Precipitation  
Precipitation 0.00 in 0.09 in 1.73 in (2000)
Month to date precipitation 0.87 0.39  
Year to date precipitation 37.09 33.58  
Sea Level Pressure  
Sea Level Pressure 30.02 in    
Wind  
Wind Speed 5 mph ()    
Max Wind Speed 12 mph    
Max Gust Speed 15 mph    
Visibility 9.3 miles    
Events      
T = Trace of Precipitation, MM = Missing Value Source: Averaged Metar Reports

Daily Weather History Graph

Daily Weather History Graph

Search for Another Location

Airport or City:

Astronomy

Sep. 04, 2019 Rise Set
Actual Time 7:17 AM EDT 8:12 PM EDT
Civil Twilight 6:50 AM EDT 8:39 PM EDT
Nautical Twilight 6:17 AM EDT 9:12 PM EDT
Astronomical Twilight 5:44 AM EDT 9:45 PM EDT
Moon 1:15 PM EDT (9/4) 11:49 PM EDT (9/4)
Length of Visible Light 13h 49m
Length of Day
12h 55m
Waxing Crescent, 34% of the Moon is Illuminated
Sep 4
Waxing Crescent
Sep 5
First Quarter
Sep 14
Full
Sep 21
Last Quarter
Sep 28
New

Hourly Weather History & Observations

Time (EDT) Temp. Heat Index Dew Point Humidity Pressure Visibility Wind Dir Wind Speed Gust Speed Precip Events Conditions
12:53 AM 75.0 °F - 68.0 °F 79% 29.95 in 10.0 mi WSW 6.9 mph - N/A   Clear
1:53 AM 75.0 °F - 69.1 °F 82% 29.95 in 10.0 mi WSW 5.8 mph - N/A   Partly Cloudy
2:53 AM 75.0 °F - 69.1 °F 82% 29.95 in 10.0 mi WSW 6.9 mph - N/A   Partly Cloudy
3:53 AM 73.9 °F - 69.1 °F 85% 29.95 in 10.0 mi West 8.1 mph - N/A   Scattered Clouds
4:02 AM 75.0 °F - 69.1 °F 82% 29.97 in 10.0 mi West 5.8 mph - N/A   Mostly Cloudy
4:42 AM 73.0 °F - 69.1 °F 87% 29.98 in 10.0 mi West 5.8 mph - N/A   Scattered Clouds
4:53 AM 73.9 °F - 69.1 °F 85% 29.95 in 10.0 mi WNW 5.8 mph - N/A   Clear
5:53 AM 73.0 °F - 69.1 °F 87% 29.97 in 9.0 mi NW 3.5 mph - N/A   Clear
6:53 AM 70.0 °F - 68.0 °F 93% 29.99 in 3.0 mi Calm Calm - N/A   Clear
7:19 AM 69.1 °F - 66.9 °F 93% 30.02 in 1.8 mi Calm Calm - N/A   Clear
7:53 AM 69.1 °F - 66.9 °F 93% 30.02 in 6.0 mi Calm Calm - N/A   Clear
8:53 AM 73.0 °F - 64.9 °F 76% 30.04 in 10.0 mi North 5.8 mph - N/A   Clear
9:53 AM 75.0 °F - 60.1 °F 60% 30.05 in 10.0 mi North 9.2 mph - N/A   Clear
10:53 AM 75.9 °F - 59.0 °F 56% 30.05 in 10.0 mi North 8.1 mph - N/A   Clear
11:53 AM 78.1 °F - 60.1 °F 54% 30.06 in 10.0 mi NW 4.6 mph - N/A   Clear
12:53 PM 78.1 °F - 60.1 °F 54% 30.06 in 10.0 mi Variable 6.9 mph - N/A   Clear
1:53 PM 80.1 °F 81.1 °F 61.0 °F 52% 30.06 in 10.0 mi NNW 8.1 mph - N/A   Clear
2:53 PM 80.1 °F 80.7 °F 59.0 °F 48% 30.05 in 10.0 mi West 6.9 mph - N/A   Clear
3:53 PM 80.1 °F 80.4 °F 57.0 °F 45% 30.04 in 10.0 mi NW 5.8 mph - N/A   Clear
4:53 PM 81.0 °F 81.6 °F 60.1 °F 49% 30.04 in 10.0 mi NNW 4.6 mph - N/A   Clear
5:53 PM 79.0 °F - 61.0 °F 54% 30.04 in 10.0 mi NNW 9.2 mph - N/A   Partly Cloudy
6:53 PM 77.0 °F - 60.1 °F 56% 30.05 in 10.0 mi NNW 5.8 mph - N/A   Clear
7:53 PM 72.0 °F - 61.0 °F 68% 30.07 in 10.0 mi North 5.8 mph - N/A   Clear
8:53 PM 66.0 °F - 60.1 °F 81% 30.08 in 10.0 mi Calm Calm - N/A   Clear
9:53 PM 63.0 °F - 60.1 °F 90% 30.09 in 10.0 mi Calm Calm - N/A   Clear
10:53 PM 63.0 °F - 59.0 °F 87% 30.08 in 10.0 mi Calm Calm - N/A   Clear
11:53 PM 63.0 °F - 57.9 °F 84% 30.09 in 10.0 mi North 5.8 mph - N/A   Clear